When you browse on this site, cookies collect data to enhance your experience and personalize the content and advertising you see.
Visit our Privacy Policy to learn more. By continuing to use the site, you agree to this use of cookies and data.
  • In Romania
  • List of Countries
  • For 7 days
  • Water Temperature
  • Satellite Maps
  • Weather Map
  • Weather Widgets
  • user-avatar
    Login

    Hourly Weather Hudyakovka

    Today, 23 July, Tuesday

    Time Temperature Precipitation Wind Pressure Humidity
    00:00 +15°C° 0 mm 2 mps 739 mmHg 93%
    01:00 +14°C° 0 mm 2 mps 739 mmHg 94%
    02:00 +14°C° 0 mm 2 mps 739 mmHg 95%
    03:00 +13°C° 0 mm 1 mps 739 mmHg 96%
    04:00 +13°C° 0 mm 1 mps 739 mmHg 96%
    05:00 +14°C° 0 mm 2 mps 740 mmHg 96%
    06:00 +15°C° 0 mm 2 mps 740 mmHg 95%
    07:00 +16°C° 0 mm 2 mps 740 mmHg 94%
    08:00 +17°C° 0.1 mm 2 mps 740 mmHg 91%
    09:00 +18°C° 0.1 mm 3 mps 740 mmHg 88%
    10:00 +19°C° 0.1 mm 3 mps 740 mmHg 85%
    11:00 +19°C° 0.7 mm 4 mps 740 mmHg 84%
    12:00 +20°C° 0.7 mm 4 mps 740 mmHg 82%
    13:00 +20°C° 0.7 mm 4 mps 741 mmHg 81%
    14:00 +20°C° 0.7 mm 4 mps 741 mmHg 81%
    15:00 +20°C° 0.7 mm 4 mps 741 mmHg 81%
    16:00 +20°C° 0.7 mm 4 mps 741 mmHg 82%
    17:00 +20°C° 0.4 mm 4 mps 741 mmHg 85%
    18:00 +19°C° 0.4 mm 3 mps 741 mmHg 87%
    19:00 +19°C° 0.4 mm 3 mps 741 mmHg 90%
    20:00 +17°C° 0 mm 3 mps 741 mmHg 92%
    21:00 +16°C° 0 mm 3 mps 741 mmHg 94%
    22:00 +14°C° 0 mm 3 mps 742 mmHg 95%
    23:00 +14°C° 0 mm 3 mps 742 mmHg 96%

    Tomorrow, 24 July, Wednesday

    Time Temperature Precipitation Wind Pressure Humidity
    00:00 +14°C° 0 mm 2 mps 742 mmHg 96%
    01:00 +14°C° 0 mm 2 mps 742 mmHg 97%
    02:00 +14°C° 0 mm 2 mps 742 mmHg 97%
    03:00 +14°C° 0 mm 2 mps 742 mmHg 97%
    04:00 +13°C° 0 mm 2 mps 742 mmHg 97%
    05:00 +14°C° 0 mm 2 mps 743 mmHg 96%
    06:00 +15°C° 0 mm 2 mps 743 mmHg 95%
    07:00 +16°C° 0 mm 2 mps 743 mmHg 93%
    08:00 +18°C° 0 mm 2 mps 743 mmHg 88%
    09:00 +19°C° 0 mm 2 mps 743 mmHg 82%
    10:00 +21°C° 0 mm 2 mps 744 mmHg 77%
    11:00 +23°C° 0.3 mm 2 mps 744 mmHg 76%
    12:00 +22°C° 0.3 mm 3 mps 744 mmHg 75%
    13:00 +24°C° 0.3 mm 3 mps 744 mmHg 75%
    14:00 +24°C° 0.4 mm 3 mps 744 mmHg 74%
    15:00 +24°C° 0.4 mm 3 mps 744 mmHg 72%
    16:00 +25°C° 0.4 mm 3 mps 744 mmHg 71%
    17:00 +24°C° 0.3 mm 2 mps 744 mmHg 75%
    18:00 +23°C° 0.3 mm 2 mps 744 mmHg 79%
    19:00 +23°C° 0.3 mm 2 mps 744 mmHg 83%
    20:00 +20°C° 0 mm 2 mps 744 mmHg 85%
    21:00 +19°C° 0 mm 2 mps 744 mmHg 87%
    22:00 +17°C° 0 mm 2 mps 744 mmHg 89%
    23:00 +17°C° 0 mm 2 mps 745 mmHg 89%

    Day after tomorrow, 25 July, Thursday

    Time Temperature Precipitation Wind Pressure Humidity
    00:00 +16°C° 0 mm 2 mps 745 mmHg 90%
    01:00 +16°C° 0 mm 2 mps 745 mmHg 90%
    02:00 +16°C° 0 mm 2 mps 745 mmHg 91%
    03:00 +15°C° 0 mm 2 mps 745 mmHg 91%
    04:00 +15°C° 0 mm 2 mps 745 mmHg 91%
    05:00 +16°C° 0 mm 2 mps 746 mmHg 89%
    06:00 +17°C° 0 mm 2 mps 746 mmHg 88%
    07:00 +19°C° 0 mm 3 mps 746 mmHg 87%
    08:00 +20°C° 0 mm 3 mps 746 mmHg 81%
    09:00 +22°C° 0 mm 3 mps 746 mmHg 75%
    10:00 +25°C° 0 mm 3 mps 746 mmHg 69%
    11:00 +25°C° 0 mm 3 mps 746 mmHg 64%
    12:00 +26°C° 0 mm 3 mps 746 mmHg 60%
    13:00 +27°C° 0 mm 3 mps 746 mmHg 55%
    14:00 +27°C° 0 mm 3 mps 746 mmHg 57%
    15:00 +27°C° 0 mm 3 mps 746 mmHg 59%
    16:00 +27°C° 0 mm 3 mps 746 mmHg 62%
    17:00 +26°C° 0 mm 3 mps 746 mmHg 67%
    18:00 +25°C° 0 mm 3 mps 746 mmHg 72%
    19:00 +24°C° 0 mm 3 mps 746 mmHg 77%
    20:00 +21°C° 0 mm 2 mps 746 mmHg 79%
    21:00 +20°C° 0 mm 2 mps 746 mmHg 81%
    22:00 +18°C° 0 mm 2 mps 746 mmHg 83%
    23:00 +18°C° 0 mm 2 mps 746 mmHg 83%

    26 July, Friday

    Time Temperature Precipitation Wind Pressure Humidity
    00:00 +17°C° 0 mm 2 mps 746 mmHg 84%
    01:00 +17°C° 0 mm 2 mps 746 mmHg 85%
    02:00 +17°C° 0 mm 2 mps 746 mmHg 84%
    03:00 +16°C° 0 mm 2 mps 746 mmHg 83%
    04:00 +16°C° 0 mm 2 mps 746 mmHg 82%
    05:00 +18°C° 0 mm 1 mps 746 mmHg 79%
    06:00 +19°C° 0 mm 1 mps 746 mmHg 76%
    07:00 +21°C° 0 mm 1 mps 747 mmHg 73%
    08:00 +22°C° 0 mm 1 mps 746 mmHg 69%
    09:00 +24°C° 0 mm 1 mps 746 mmHg 65%
    10:00 +25°C° 0 mm 1 mps 746 mmHg 60%
    11:00 +26°C° 0 mm 2 mps 746 mmHg 58%
    12:00 +26°C° 0 mm 2 mps 746 mmHg 56%
    13:00 +27°C° 0 mm 2 mps 746 mmHg 54%
    14:00 +27°C° 0 mm 2 mps 745 mmHg 55%
    15:00 +27°C° 0 mm 2 mps 745 mmHg 55%
    16:00 +27°C° 0 mm 2 mps 745 mmHg 56%
    17:00 +26°C° 0 mm 2 mps 744 mmHg 63%
    18:00 +25°C° 0 mm 2 mps 744 mmHg 69%
    19:00 +24°C° 0 mm 2 mps 744 mmHg 76%
    20:00 +23°C° 0 mm 2 mps 744 mmHg 79%
    21:00 +20°C° 0 mm 2 mps 744 mmHg 83%
    22:00 +18°C° 0 mm 2 mps 743 mmHg 86%
    23:00 +19°C° 0 mm 1 mps 743 mmHg 86%

    27 July, Saturday

    Time Temperature Precipitation Wind Pressure Humidity
    00:00 +19°C° 0 mm 1 mps 743 mmHg 87%
    01:00 +18°C° 0 mm 1 mps 743 mmHg 87%
    02:00 +18°C° 0 mm 1 mps 742 mmHg 87%
    03:00 +16°C° 0 mm 1 mps 742 mmHg 86%
    04:00 +16°C° 0 mm 1 mps 742 mmHg 86%
    05:00 +16°C° 0 mm 0 mps 742 mmHg 84%
    06:00 +17°C° 0 mm 0 mps 742 mmHg 81%
    07:00 +19°C° 0 mm 0 mps 742 mmHg 79%
    08:00 +20°C° 0.1 mm 0 mps 741 mmHg 75%
    09:00 +21°C° 0.1 mm 0 mps 741 mmHg 72%
    10:00 +23°C° 0.1 mm 0 mps 740 mmHg 69%
    11:00 +23°C° 0.2 mm 0 mps 740 mmHg 65%
    12:00 +26°C° 0.2 mm 1 mps 740 mmHg 61%
    13:00 +26°C° 0.2 mm 1 mps 739 mmHg 58%
    14:00 +26°C° 0.2 mm 1 mps 739 mmHg 58%
    15:00 +26°C° 0.2 mm 1 mps 738 mmHg 59%
    16:00 +26°C° 0.2 mm 1 mps 738 mmHg 59%
    17:00 +25°C° 0.4 mm 1 mps 737 mmHg 66%
    18:00 +24°C° 0.4 mm 1 mps 737 mmHg 73%
    19:00 +23°C° 0.4 mm 1 mps 736 mmHg 80%
    20:00 +22°C° 0.1 mm 1 mps 736 mmHg 82%
    21:00 +20°C° 0.1 mm 1 mps 735 mmHg 84%
    22:00 +19°C° 0.1 mm 1 mps 735 mmHg 86%
    23:00 +18°C° 0 mm 1 mps 734 mmHg 87%

    28 July, Sunday

    Time Temperature Precipitation Wind Pressure Humidity
    00:00 +18°C° 0 mm 1 mps 734 mmHg 87%
    01:00 +16°C° 0 mm 1 mps 733 mmHg 88%
    02:00 +16°C° 0 mm 1 mps 733 mmHg 90%
    03:00 +16°C° 0 mm 2 mps 732 mmHg 91%
    04:00 +15°C° 0 mm 2 mps 732 mmHg 93%
    05:00 +16°C° 0.2 mm 2 mps 731 mmHg 92%
    06:00 +17°C° 0.2 mm 3 mps 731 mmHg 90%
    07:00 +18°C° 0.2 mm 3 mps 730 mmHg 89%
    08:00 +19°C° 0.9 mm 3 mps 730 mmHg 87%
    09:00 +20°C° 0.9 mm 4 mps 729 mmHg 84%
    10:00 +21°C° 0.9 mm 4 mps 729 mmHg 82%
    11:00 +21°C° 1.6 mm 4 mps 728 mmHg 81%
    12:00 +21°C° 1.6 mm 4 mps 728 mmHg 81%
    13:00 +22°C° 1.6 mm 4 mps 728 mmHg 80%
    14:00 +21°C° 1.2 mm 4 mps 728 mmHg 83%
    15:00 +21°C° 1.2 mm 3 mps 728 mmHg 85%
    16:00 +20°C° 1.2 mm 3 mps 727 mmHg 87%
    17:00 +18°C° 0.5 mm 3 mps 727 mmHg 90%
    18:00 +15°C° 0.5 mm 4 mps 727 mmHg 93%
    19:00 +13°C° 0.5 mm 4 mps 727 mmHg 96%
    20:00 +13°C° 0.5 mm 4 mps 727 mmHg 97%
    21:00 +12°C° 0.5 mm 4 mps 727 mmHg 97%
    22:00 +12°C° 0.5 mm 4 mps 727 mmHg 98%
    23:00 +11°C° 0.5 mm 4 mps 727 mmHg 97%
    Show more